Weather History for Bangor, ME

Change the Weather History Date:

Wednesday, May 1, 2013

  Actual Average Record
Temperature  
Mean Temperature 55 °F 49 °F  
Max Temperature 76 °F 60 °F 79 °F (2010)
Min Temperature 33 °F 38 °F 23 °F (1943)
Degree Days  
Heating Degree Days 10 16  
Month to date heating degree days 10 16  
Since 1 July heating degree days 7105 7414  
Cooling Degree Days 0 0  
Month to date cooling degree days 0 0  
Year to date cooling degree days 0 0  
Growing Degree Days 5 (Base 50)    
Moisture  
Dew Point 31 °F    
Average Humidity 56    
Maximum Humidity 92    
Minimum Humidity 19    
Precipitation  
Precipitation 0.00 in 0.12 in 0.88 in (1947)
Month to date precipitation 0.00 0.12  
Year to date precipitation 6.73 12.53  
Snow  
Snow 0.00 in 0.00 in 0.00 in (2000)
Month to date snowfall 0.0 0.0  
Since 1 July snowfall 74.3 66.1  
Snow Depth 0.00 in    
Sea Level Pressure  
Sea Level Pressure 30.42 in    
Wind  
Wind Speed 3 mph (SSE)    
Max Wind Speed 16 mph    
Max Gust Speed 20 mph    
Visibility 10 miles    
Events      
T = Trace of Precipitation, MM = Missing Value Source: NWS Daily Summary

Daily Weather History Graph

Daily Weather History Graph

Search for Another Location

Airport:

Trip Planner

Search our weather history database for the weather conditions in past years. The results will help you decide how hot, cold, wet, or windy it might be!

Date:

Astronomy

May. 01, 2013 Rise Set
Actual Time 5:24 AM EDT 7:40 PM EDT
Civil Twilight 4:52 AM EDT 8:13 PM EDT
Nautical Twilight 4:12 AM EDT 8:53 PM EDT
Astronomical Twilight 3:28 AM EDT 9:38 PM EDT
Moon 12:48 AM EDT 10:59 AM EDT
Length of Visible Light 15h 20m
Length of Day
14h 15m
Waning Gibbous, 59% of the Moon is Illuminated
May 1
Waning Gibbous
May 2
Last Quarter
May 9
New
May 18
First Quarter
May 25
Full

Hourly Weather History & Observations

Time (EDT) Temp. Dew Point Humidity Pressure Visibility Wind Dir Wind Speed Gust Speed Precip Events Conditions
12:53 AM 41.0 °F 34.0 °F 76% 30.38 in 10.0 mi Calm Calm - N/A   Clear
1:53 AM 39.0 °F 34.0 °F 82% 30.38 in 10.0 mi Calm Calm - N/A   Clear
2:53 AM 39.0 °F 34.0 °F 82% 30.39 in 10.0 mi Calm Calm - N/A   Partly Cloudy
3:53 AM 36.0 °F 34.0 °F 93% 30.41 in 10.0 mi Calm Calm - N/A   Partly Cloudy
4:53 AM 35.1 °F 34.0 °F 96% 30.42 in 10.0 mi Calm Calm - N/A   Partly Cloudy
5:53 AM 37.0 °F 34.0 °F 89% 30.43 in 10.0 mi Calm Calm - N/A   Scattered Clouds
6:53 AM 42.1 °F 37.0 °F 82% 30.45 in 10.0 mi Calm Calm - N/A   Partly Cloudy
7:53 AM 48.9 °F 35.1 °F 59% 30.45 in 10.0 mi SSW 4.6 mph - N/A   Partly Cloudy
8:53 AM 55.0 °F 32.0 °F 42% 30.45 in 10.0 mi SE 3.5 mph - N/A   Partly Cloudy
9:53 AM 61.0 °F 30.9 °F 32% 30.45 in 10.0 mi Calm Calm - N/A   Partly Cloudy
10:53 AM 66.0 °F 32.0 °F 28% 30.45 in 10.0 mi SE 4.6 mph - N/A   Scattered Clouds
11:53 AM 69.8 °F 30.2 °F 23% 30.44 in 10.0 mi ENE 3.5 mph - N/A   Scattered Clouds
12:53 PM 72.0 °F 30.9 °F 22% 30.41 in 10.0 mi East 3.5 mph - N/A   Scattered Clouds
1:53 PM 75.0 °F 33.1 °F 22% 30.40 in 10.0 mi Calm Calm - N/A   Scattered Clouds
2:53 PM 75.0 °F 30.9 °F 20% 30.39 in 10.0 mi Calm Calm - N/A   Partly Cloudy
3:21 PM 71.6 °F 30.2 °F 22% 30.38 in 10.0 mi South 12.7 mph - N/A   Partly Cloudy
3:53 PM 69.1 °F 28.9 °F 22% 30.39 in 10.0 mi South 15.0 mph - N/A   Partly Cloudy
4:53 PM 68.0 °F 27.0 °F 21% 30.40 in 10.0 mi SSE 12.7 mph - N/A   Clear
5:53 PM 64.0 °F 21.0 °F 19% 30.41 in 10.0 mi South 11.5 mph 19.6 mph N/A   Scattered Clouds
6:53 PM 61.0 °F 25.0 °F 25% 30.42 in 10.0 mi South 9.2 mph - N/A   Scattered Clouds
7:53 PM 57.0 °F 26.1 °F 30% 30.43 in 10.0 mi South 5.8 mph - N/A   Mostly Cloudy
8:53 PM 54.0 °F 28.0 °F 37% 30.44 in 10.0 mi South 4.6 mph - N/A   Partly Cloudy
9:53 PM 51.1 °F 30.0 °F 44% 30.44 in 10.0 mi South 5.8 mph - N/A   Partly Cloudy
10:53 PM 48.0 °F 28.9 °F 48% 30.44 in 10.0 mi SSE 4.6 mph - N/A   Clear
11:53 PM 48.0 °F 30.0 °F 50% 30.44 in 10.0 mi South 4.6 mph - N/A   Clear